This demonstration page uses our WeatherBlox Daily Observations layout. Learn more.

Left ArrowRight Arrow

Hourly Observations for August 30, 2016

Temp ( °F °C ) Dew Point ( °F °C ) Humidity (%) Winds ( mph kmh ) Pressure ( in mb ) Visibility ( mi km ) Precip ( " mm )
12:14 am 00:14 Clear 70 21 68 20 94 94 Calm 30.18 1022 10 16.0934 N/A
12:35 am 00:35 Clear 70 21 70 21 100 100 Calm 30.18 1022 10 16.0934 N/A
12:54 am 00:54 Clear 70 21 68 20 94 94 Calm 30.18 1022 10 16.0934 N/A
1:14 am 01:14 Clear 70 21 70 21 100 100 Calm 30.18 1022 10 16.0934 N/A
1:35 am 01:35 Clear 70 21 68 20 94 94 Calm 30.18 1022 10 16.0934 N/A
1:54 am 01:54 Clear 70 21 68 20 94 94 NNE 3 6 30.18 1022 10 16.0934 N/A
2:14 am 02:14 Clear 68 20 68 20 100 100 NNE 3 6 30.18 1022 10 16.0934 N/A
2:35 am 02:35 Clear 68 20 68 20 100 100 Calm 30.18 1022 7 11.26538 N/A
2:54 am 02:54 Clear 68 20 68 20 100 100 Calm 30.18 1022 10 16.0934 N/A
3:14 am 03:14 Clear 68 20 68 20 100 100 Calm 30.18 1022 10 16.0934 N/A
3:35 am 03:35 Clear 68 20 68 20 100 100 Calm 30.18 1022 10 16.0934 N/A
3:54 am 03:54 Clear 68 20 68 20 100 100 Calm 30.18 1022 10 16.0934 N/A
4:14 am 04:14 Clear 68 20 66 19 94 94 Calm 30.18 1022 10 16.0934 N/A
4:35 am 04:35 Clear 66 19 66 19 100 100 Calm 30.18 1022 7 11.26538 N/A
4:54 am 04:54 Clear 68 20 68 20 100 100 Calm 30.18 1022 10 16.0934 N/A
5:14 am 05:14 Clear 70 21 68 20 94 94 Calm 30.18 1022 10 16.0934 N/A
5:35 am 05:35 Clear 68 20 66 19 94 94 Calm 30.15 1021 10 16.0934 N/A
5:54 am 05:54 Clear 68 20 66 19 94 94 ESE 3 6 30.15 1021 10 16.0934 N/A
6:15 am 06:15 Clear 68 20 66 19 94 94 SE 3 6 30.15 1021 10 16.0934 N/A
6:35 am 06:35 Clear 68 20 66 19 94 94 Calm 30.18 1022 10 16.0934 N/A
6:54 am 06:54 Clear 68 20 66 19 94 94 Calm 30.18 1022 10 16.0934 N/A
7:15 am 07:15 Sunny 66 19 64 18 94 94 Calm 30.18 1022 10 16.0934 N/A
7:34 am 07:34 Sunny 66 19 64 18 94 94 Calm 30.18 1022 10 16.0934 N/A
7:54 am 07:54 Sunny 68 20 66 19 94 94 Calm 30.18 1022 7 11.26538 N/A
8:15 am 08:15 Sunny 70 21 68 20 94 94 Calm 30.18 1022 10 16.0934 N/A
8:34 am 08:34 Sunny 72 22 68 20 88 88 Calm 30.18 1022 10 16.0934 N/A
8:54 am 08:54 Sunny 73 23 70 21 89 89 Calm 30.15 1021 10 16.0934 N/A
9:15 am 09:15 Sunny 75 24 70 21 83 83 SSE 5 7 30.15 1021 10 16.0934 N/A
9:34 am 09:34 Sunny 75 24 70 21 83 83 SE 5 7 30.15 1021 10 16.0934 N/A
9:54 am 09:54 Sunny 77 25 70 21 79 79 S 5 7 30.15 1021 10 16.0934 N/A
10:15 am 10:15 Sunny 79 26 70 21 74 74 S 3 6 30.15 1021 10 16.0934 N/A
10:34 am 10:34 Sunny 81 27 72 22 74 74 SSW 3 6 30.15 1021 10 16.0934 N/A
10:54 am 10:54 Sunny 81 27 72 22 74 74 SSW 3 6 30.15 1021 10 16.0934 N/A
11:15 am 11:15 Sunny 81 27 70 21 70 70 Calm 30.15 1021 10 16.0934 N/A
11:34 am 11:34 Sunny 82 28 70 21 66 66 SSW 3 6 30.12 1020 10 16.0934 N/A
11:54 am 11:54 Sunny 82 28 70 21 66 66 SSW 3 6 30.15 1021 10 16.0934 N/A
12:15 pm 12:15 Sunny 82 28 72 22 70 70 Calm 30.15 1021 10 16.0934 N/A
12:34 pm 12:34 Sunny 84 29 72 22 66 66 Calm 30.12 1020 10 16.0934 N/A
12:54 pm 12:54 Partly Cloudy 84 29 72 22 66 66 Calm 30.12 1020 10 16.0934 N/A
1:15 pm 13:15 Partly Cloudy 86 30 72 22 62 62 Calm 30.12 1020 10 16.0934 N/A
1:34 pm 13:34 Partly Cloudy 84 29 72 22 66 66 ENE 3 6 30.12 1020 10 16.0934 N/A
1:54 pm 13:54 Partly Cloudy 86 30 72 22 62 62 Calm 30.09 1019 10 16.0934 N/A
2:15 pm 14:15 Partly Cloudy 86 30 72 22 62 62 Calm 30.09 1019 10 16.0934 N/A
2:34 pm 14:34 Partly Cloudy 86 30 72 22 62 62 Calm 30.09 1019 10 16.0934 N/A
2:54 pm 14:54 Partly Cloudy 86 30 72 22 62 62 ESE 3 6 30.09 1019 10 16.0934 N/A
3:15 pm 15:15 Partly Cloudy 86 30 72 22 62 62 ESE 7 11 30.09 1019 10 16.0934 N/A
3:34 pm 15:34 Partly Cloudy 86 30 72 22 62 62 SSE 6 9 30.06 1018 10 16.0934 N/A
3:54 pm 15:54 Partly Cloudy 86 30 72 22 62 62 SE 3 6 30.06 1018 10 16.0934 N/A
4:15 pm 16:15 Partly Cloudy 86 30 70 21 59 59 SE 3 6 30.06 1018 10 16.0934 N/A
4:34 pm 16:34 Partly Cloudy 86 30 72 22 62 62 S 6 9 30.03 1017 10 16.0934 N/A
4:54 pm 16:54 Sunny 86 30 72 22 62 62 S 5 7 30.03 1017 10 16.0934 N/A
5:15 pm 17:15 Sunny 86 30 72 22 62 62 SSE 5 7 30.03 1017 10 16.0934 N/A
5:34 pm 17:34 Partly Cloudy 86 30 72 22 62 62 S 8 13 30.03 1017 10 16.0934 N/A
5:55 pm 17:55 Sunny 82 28 72 22 70 70 S 5 7 30.03 1017 10 16.0934 N/A
6:14 pm 18:14 Sunny 82 28 72 22 70 70 S 5 7 30.03 1017 10 16.0934 N/A
6:35 pm 18:35 Sunny 82 28 72 22 70 70 S 5 7 30.03 1017 10 16.0934 N/A
6:55 pm 18:55 Sunny 81 27 72 22 74 74 SSE 6 9 30 1016 10 16.0934 N/A
7:14 pm 19:14 Mostly Cloudy 81 27 72 22 74 74 S 5 7 30 1016 10 16.0934 N/A
7:35 pm 19:35 Partly Cloudy 79 26 72 22 79 79 S 5 7 30 1016 10 16.0934 N/A
7:55 pm 19:55 Cloudy 79 26 72 22 79 79 S 6 9 30 1016 10 16.0934 N/A
8:14 pm 20:14 Cloudy 73 23 70 21 89 89 N 20 31 30.03 1017 3 4.82802 N/A
8:35 pm 20:35 Cloudy 72 22 70 21 94 94 NW 7 11 30.06 1018 0.5 0.80467 N/A
8:55 pm 20:55 Cloudy 72 22 70 21 94 94 NW 9 15 30.06 1018 4 6.43736 N/A
9:14 pm 21:14 Cloudy 72 22 70 21 94 94 NE 13 20 30.06 1018 1.5 2.41401 N/A
9:35 pm 21:35 Cloudy 70 21 70 21 100 100 Calm 30.09 1019 7 11.26538 N/A
9:55 pm 21:55 Cloudy 70 21 70 21 100 100 N 6 9 30.12 1020 5 8.0467 N/A
10:14 pm 22:14 Cloudy 70 21 70 21 100 100 E 8 13 30.09 1019 5 8.0467 N/A
10:35 pm 22:35 Cloudy 70 21 70 21 100 100 E 7 11 30.09 1019 7 11.26538 N/A
10:55 pm 22:55 Cloudy 70 21 70 21 100 100 SE 5 7 30.09 1019 10 16.0934 N/A
11:14 pm 23:14 Cloudy 70 21 70 21 100 100 Calm 30.09 1019 10 16.0934 N/A
11:35 pm 23:35 Mostly Cloudy 70 21 70 21 100 100 Calm 30.09 1019 7 11.26538 N/A
11:55 pm 23:55 Cloudy 70 21 70 21 100 100 SSE 3 6 30.09 1019 5 8.0467 N/A

Powered by AerisWeather